DJ2KUA-6 Weather Reports


Display with metric or nautical units.
time (UTC)temp
F
wind
direction
speed
MPH
gust
MPH
rain 1hr
in
rain 24hr
in
rain mn
in
humidity
%
barometer
mb
20260506032055 52 158 0.0 0.0 0.00 0.12 0.00 87 1059.0
20260506030154 52 158 0.0 0.0 0.00 0.12 0.00 87 1059.0
20260506024255 53 158 0.0 0.0 0.00 0.12 0.00 86 1059.0
20260506022357 52 135 0.0 0.0 0.00 0.12 0.00 87 1059.0
20260506020455 52 135 0.0 0.0 0.00 0.12 0.00 87 1059.0
20260506014636 52 135 0.0 0.0 0.00 0.12 0.00 87 1059.0
20260506014556 52 135 0.0 0.0 0.00 0.12 0.00 87 1059.0
20260506012657 53 158 0.0 0.0 0.00 0.12 0.00 87 1059.0
20260506010758 53 158 0.0 0.0 0.00 0.12 0.00 87 1059.0
20260506004856 54 135 0.0 0.0 0.00 0.12 0.00 87 1059.0
20260506002956 54 135 0.0 0.0 0.00 0.12 0.00 87 1060.0
20260506001055 54 158 0.0 0.0 0.00 0.12 0.00 87 1060.0
20260505233255 54 158 0.0 0.0 0.00 0.12 0.00 87 1060.0
20260505231355 55 158 0.0 0.0 0.00 0.12 0.00 87 1060.0
20260505225457 55 158 0.0 0.0 0.00 0.12 0.00 87 1060.0
20260505223557 55 158 0.0 0.0 0.00 0.12 0.00 87 1060.0
20260505221655 56 135 0.0 0.0 0.00 0.12 0.00 87 1060.0
20260505215755 56 135 0.0 0.0 0.00 0.12 0.00 87 1060.0
20260505210057 58 135 0.0 0.0 0.00 0.12 0.00 86 1060.0
20260505204156 58 135 0.0 0.0 0.00 0.12 0.00 86 1060.0
20260505202257 59 158 0.0 0.0 0.04 0.12 0.00 87 1060.0
20260505200356 59 112 0.0 0.0 0.06 0.12 0.00 87 1060.0
20260505194456 59 135 0.0 0.0 0.08 0.12 0.00 87 1060.0
20260505192555 59 248 0.0 0.0 0.04 0.08 0.00 86 1060.0
20260505190656 60 135 0.0 0.0 0.02 0.06 0.00 85 1060.0
20260505182857 62 135 0.0 0.0 0.00 0.04 0.00 81 1059.0
20260505180957 63 135 0.0 0.0 0.00 0.04 0.00 79 1059.0
20260505175059 64 135 0.0 0.0 0.00 0.04 0.00 78 1059.0
20260505173155 65 135 0.0 0.0 0.00 0.04 0.00 77 1059.0
20260505171255 66 135 0.0 0.0 0.00 0.04 0.00 78 1059.0
20260505165355 66 135 0.0 0.0 0.00 0.04 0.00 78 1059.0
20260505163456 66 158 0.0 0.0 0.00 0.04 0.00 77 1059.0
20260505161556 67 135 0.0 0.0 0.00 0.04 0.00 77 1060.0
20260505140256 63 135 0.0 0.0 0.02 0.02 0.00 83 1061.0
20260505124655 65 135 0.0 0.0 0.00 0.00 0.00 72 1061.0
20260505120953 72 338 0.0 0.0 0.00 0.00 0.00 58 1060.0
20260505120857 72 338 0.0 0.0 0.00 0.00 0.00 58 1060.0
20260505114957 74 0 0.0 0.0 0.00 0.00 0.00 57 1060.0
20260505113058 73 270 0.0 0.0 0.00 0.00 0.00 60 1060.0
20260505111157 71 225 0.0 0.0 0.00 0.00 0.00 63 1061.0
20260505101457 69 292 0.0 0.0 0.00 0.00 0.00 63 1061.0
20260505095556 69 135 0.0 0.0 0.00 0.00 0.00 64 1061.0
20260505093657 67 248 0.0 0.0 0.00 0.00 0.00 66 1061.0
20260505091758 67 248 0.0 0.0 0.00 0.00 0.00 67 1061.0
20260505085855 67 270 0.0 0.0 0.00 0.00 0.00 67 1061.0
20260505083958 67 135 0.0 0.0 0.00 0.00 0.00 68 1062.0
20260505082056 67 112 0.0 0.0 0.00 0.00 0.00 68 1062.0
20260505080159 66 135 0.0 0.0 0.00 0.00 0.00 69 1062.0
20260505074355 65 270 0.0 0.0 0.00 0.00 0.00 70 1062.0
20260505074258 65 270 0.0 0.0 0.00 0.00 0.00 70 1062.0
20260505072358 65 135 0.0 0.0 0.00 0.00 0.00 71 1062.0
20260505064558 61 135 0.0 0.0 0.00 0.00 0.00 77 1062.0
20260505062658 60 135 0.0 0.0 0.00 0.00 0.00 78 1062.0
20260505060801 60 135 0.0 0.0 0.00 0.00 0.00 78 1062.0
20260505054856 59 135 0.0 0.0 0.00 0.00 0.00 79 1062.0
20260505052956 58 135 0.0 0.0 0.00 0.00 0.00 79 1062.0
20260505041358 56 135 0.0 0.0 0.00 0.00 0.00 81 1062.0
20260505035458 56 135 0.0 0.0 0.00 0.00 0.00 81 1062.0